Погода в Белово

Россия / Алтайский край     52°37′26″N   83°37′31″E
темп.,
°C
ветер,
м/с
пор.,
м/с
влажн.,
%
обл.,
%
осадки,
мм/ч
давл.,
гПа
погр.,
м
21 апреля, ср
ср2101:00−5в12741 0.0 102765
04:00−6в11741 0.0 102545
07:00−5вюв1171100 0.0 102577
10:00−2юв1142100 0.0 1024806
13:00+2ююз1132100 0.0 10231291
16:00+3юз233181 0.0 10231830
19:00+2ю1242100 0.0 1023727
22:00−1юв3563100 0.0 1026178
22 апреля, чт
чт2201:00−3в2473100 0.0 1027108
04:00−2всв3759100 0.1 1028365
07:00−2св3869100 0.2 1031367
10:00+1св465073 0.0 10341455
13:00+4св4543100 0.3 10352025
16:00+4св5841100 0.3 10362162
19:00+3св585395 0.6 10381408
22:00+1ссв4116524 0.0 1040556
23 апреля, пт
пт2301:00−1ссв411741 0.0 1040436
04:00−2с410805 0.0 1040401
07:00−2с39795 0.0 1041463
10:00+3ссв47525 0.0 10401160
13:00+6св5639100 0.0 10392279
16:00+6св4639100 0.0 10382076
19:00+5ссв464998 0.0 1038973
22:00+3ссв4970100 0.0 1038411
24 апреля, сб
сб2401:00+1с38815 0.0 1037236
04:00−1с3789100 0.0 1036184
07:00−1ссз378594 0.0 1035238
10:00+3ссз3564100 0.0 1034750
13:00+6ссз4553100 0.1 10331697
16:00+6ссз4551100 0.3 10321503
19:00+5с4564100 0.8 10321074
22:00+2с2697100 0.2 1033372
25 апреля, вс
вс2501:00+2зсз1191100 0.2 103259
04:00+2з238699 0.0 103274
07:00+2зсз1283100 0.0 103354
10:00+4ссз237482 0.0 1033737
13:00+7ссв225984 0.3 10321280
16:00+8с1251100 0.3 10311396
19:00+8св125593 0.6 10301075
22:00+4вюв2276100 0.1 103137